Le nostre stazioni meteo in Italia

Pubblicità
Il mio iltempo24.it
Grenoble le Versoud, Francia (7487): Temperatura & dewpoint: 11.01.2020 19:00:00 - 17.01.2020 19:00:00 (CET)Grenoble le Versoud, Francia (7487): velocità del vento & gusts: 11.01.2020 19:00:00 - 17.01.2020 19:00:00 (CET)Grenoble le Versoud, Francia (7487): direzione del vento: 11.01.2020 19:00:00 - 17.01.2020 19:00:00 (CET)Grenoble le Versoud, Francia (7487): reduced air pressure: 11.01.2020 19:00:00 - 17.01.2020 19:00:00 (CET)Grenoble le Versoud, Francia (7487): precipitazioni: 11.01.2020 19:00:00 - 17.01.2020 19:00:00 (CET)
Data & Tempo tt [°C] td [°C] ff [km/h] ff [kn] fx [km/h] fx [kn] dd ppp [hPa] rr [mm]
17.01.2020 19:00:00 4,5 4,1 11 6 16 9 S 1025,8 -
17.01.2020 18:00:00 4,4 4,0 4 2 11 6 E 1024,4 1,0
17.01.2020 17:00:00 4,4 3,7 0 0 18 10 N 1025,0 3,0
17.01.2020 16:00:00 4,5 3,8 8 4 11 6 ENE 1024,4 6,0
17.01.2020 15:00:00 4,5 3,6 5 3 13 7 E 1024,3 6,0
17.01.2020 14:00:00 5,3 3,3 4 2 5 3 NNE 1023,6 0,4
17.01.2020 13:00:00 5,7 2,9 4 2 8 4 SO 1024,1 -
17.01.2020 12:00:00 5,4 1,3 4 2 9 5 NE 1024,6 0,0
17.01.2020 11:00:00 4,8 0,7 4 2 15 8 ENE 1024,9 0,0
17.01.2020 10:00:00 3,2 -0,1 8 4 16 9 ENE 1025,6 0,0
17.01.2020 09:00:00 2,1 -0,7 8 4 15 8 ENE 1026,1 0,0
17.01.2020 08:00:00 1,6 -1,0 8 4 13 7 E 1026,2 0,0
17.01.2020 07:00:00 1,4 -1,0 8 4 16 9 ENE 1026,2 -
17.01.2020 06:00:00 1,2 -1,0 9 5 15 8 ENE 1026,1 0,0
17.01.2020 05:00:00 0,5 -1,1 8 4 15 8 ENE 1026,4 0,0
17.01.2020 04:00:00 1,8 -0,5 13 7 18 10 NE 1026,6 0,0
17.01.2020 03:00:00 1,7 -0,4 9 5 16 9 ENE 1026,6 0,0
17.01.2020 02:00:00 1,8 0,0 11 6 18 10 ENE 1026,6 0,0
17.01.2020 01:00:00 1,3 0,0 9 5 15 8 ENE 1027,1 -
17.01.2020 00:00:00 -0,5 -1,5 4 2 9 5 NE 1027,8 0,0
16.01.2020 23:00:00 0,0 -0,7 2 1 5 3 NE 1027,5 0,0
16.01.2020 22:00:00 0,5 -0,8 2 1 5 3 ENE 1028,1 0,0
16.01.2020 21:00:00 1,3 0,1 2 1 5 3 NE 1028,4 0,0
16.01.2020 20:00:00 1,6 -0,5 0 0 4 2 N 1028,7 0,0
16.01.2020 19:00:00 2,6 -0,3 0 0 4 2 N 1028,3 -
16.01.2020 18:00:00 5,4 1,5 0 0 5 3 N 1027,8 0,0
16.01.2020 17:00:00 9,6 2,2 4 2 5 3 ESE 1027,1 0,0
16.01.2020 16:00:00 12,2 1,8 0 0 9 5 N 1026,4 0,0
16.01.2020 15:00:00 11,5 2,2 8 4 11 6 NE 1026,8 0,0
16.01.2020 14:00:00 10,7 2,3 4 2 9 5 E 1027,4 0,0
16.01.2020 13:00:00 8,7 2,7 5 3 9 5 NE 1028,6 -
16.01.2020 12:00:00 6,4 2,1 5 3 9 5 NE 1030,0 0,0
16.01.2020 11:00:00 3,9 2,3 0 0 9 5 N 1030,8 0,0
16.01.2020 10:00:00 -1,3 -1,9 2 1 5 3 SO 1031,2 0,0
16.01.2020 09:00:00 -2,1 -2,8 4 2 9 5 N 1031,4 0,0
16.01.2020 08:00:00 -1,8 -2,2 5 3 9 5 NE 1030,8 0,0
16.01.2020 07:00:00 -0,8 -1,1 5 3 9 5 SSE 1030,3 -
16.01.2020 06:00:00 -1,0 -2,0 2 1 9 5 ESE 1030,7 0,0
16.01.2020 05:00:00 -1,3 -2,1 0 0 8 4 N 1030,5 0,0
16.01.2020 04:00:00 -0,8 -1,6 2 1 4 2 NE 1030,9 0,0
16.01.2020 03:00:00 -0,7 -1,8 4 2 5 3 ENE 1030,7 0,0
16.01.2020 02:00:00 -0,4 -1,1 0 0 4 2 N 1030,7 0,0
16.01.2020 01:00:00 -0,7 -2,3 0 0 2 1 N 1030,7 -
16.01.2020 00:00:00 1,9 0,7 0 0 5 3 N 1030,2 0,0
15.01.2020 23:00:00 2,2 0,7 4 2 8 4 E 1029,8 0,0
15.01.2020 22:00:00 2,1 0,5 0 0 9 5 N 1029,1 0,0
15.01.2020 21:00:00 3,1 0,3 5 3 9 5 N 1028,6 0,0
15.01.2020 20:00:00 5,1 1,6 4 2 8 4 ESE 1027,7 0,0
15.01.2020 19:00:00 7,1 2,0 4 2 11 6 ESE 1026,5 -
15.01.2020 18:00:00 9,9 2,3 5 3 18 10 SSO 1025,1 0,0
15.01.2020 17:00:00 12,5 2,6 11 6 39 21 SO 1024,2 0,0
15.01.2020 16:00:00 13,6 3,4 21 11 35 19 SO 1023,7 0,0
15.01.2020 15:00:00 14,0 3,2 24 13 41 22 SO 1022,9 0,0
15.01.2020 14:00:00 8,7 2,5 5 3 9 5 NE 1023,2 0,0
15.01.2020 13:00:00 8,0 1,8 5 3 18 10 NNE 1023,3 -
15.01.2020 12:00:00 5,6 0,4 5 3 16 9 ENE 1024,0 0,0
15.01.2020 11:00:00 4,3 -0,3 8 4 13 7 ENE 1023,8 0,0
15.01.2020 10:00:00 1,2 -2,2 5 3 15 8 ENE 1023,8 0,0
15.01.2020 09:00:00 1,0 -2,4 5 3 16 9 E 1023,4 0,0
15.01.2020 08:00:00 0,8 -2,3 9 5 15 8 E 1023,4 0,0
15.01.2020 07:00:00 1,0 -2,4 5 3 18 10 ENE 1022,8 -
15.01.2020 06:00:00 0,7 -1,9 8 4 15 8 E 1022,4 0,0
15.01.2020 05:00:00 0,0 -1,8 8 4 13 7 ENE 1022,5 0,0
15.01.2020 04:00:00 -0,4 -2,8 5 3 15 8 NE 1022,7 0,0
15.01.2020 03:00:00 0,4 -2,5 8 4 16 9 NE 1023,4 0,0
15.01.2020 02:00:00 1,8 -1,1 8 4 15 8 ENE 1022,7 0,0
15.01.2020 01:00:00 0,4 -1,4 4 2 9 5 E 1022,8 -
15.01.2020 00:00:00 0,3 -1,1 5 3 9 5 ENE 1023,0 0,0
14.01.2020 23:00:00 1,0 -0,8 5 3 9 5 ENE 1022,9 0,0
14.01.2020 22:00:00 1,3 -0,9 2 1 11 6 E 1022,7 0,0
14.01.2020 21:00:00 1,0 -1,1 4 2 9 5 NNO 1022,6 0,0
14.01.2020 20:00:00 2,0 -0,1 0 0 8 4 N 1022,8 0,0
14.01.2020 19:00:00 3,2 -0,1 0 0 5 3 N 1022,4 -
14.01.2020 18:00:00 4,9 0,1 0 0 5 3 N 1021,6 0,0
14.01.2020 17:00:00 9,5 0,6 5 3 13 7 ENE 1020,6 0,0
14.01.2020 16:00:00 12,8 3,4 0 0 5 3 N 1020,4 0,0
14.01.2020 15:00:00 11,2 1,1 4 2 15 8 NE 1020,4 0,0
14.01.2020 14:00:00 9,7 0,8 11 6 15 8 NE 1021,2 0,0
14.01.2020 13:00:00 7,9 -0,1 8 4 13 7 ENE 1022,0 -
14.01.2020 12:00:00 5,4 0,0 5 3 13 7 ENE 1023,0 0,0
14.01.2020 11:00:00 1,3 -0,8 5 3 15 8 NE 1023,6 0,0
14.01.2020 10:00:00 -1,8 -2,8 9 5 13 7 NE 1024,0 0,0
14.01.2020 09:00:00 -2,8 -4,1 4 2 13 7 ENE 1023,3 0,0
14.01.2020 08:00:00 -3,0 -3,4 5 3 9 5 E 1023,5 0,0
14.01.2020 07:00:00 -3,8 -4,3 0 0 8 4 N 1023,2 -
14.01.2020 06:00:00 -3,9 -4,7 0 0 8 4 N 1022,6 0,0
14.01.2020 05:00:00 -3,2 -3,7 0 0 5 3 N 1022,0 0,0
14.01.2020 04:00:00 -3,6 -4,4 4 2 5 3 NNE 1023,1 0,0
14.01.2020 03:00:00 -3,0 -3,8 2 1 4 2 OSO 1023,1 0,0
14.01.2020 02:00:00 -3,1 -3,6 0 0 4 2 N 1022,8 0,0
14.01.2020 01:00:00 -2,8 -3,3 0 0 5 3 N 1023,2 -
14.01.2020 00:00:00 -2,4 -3,0 4 2 5 3 ENE 1022,9 0,0
13.01.2020 23:00:00 -2,7 -3,8 0 0 4 2 N 1022,5 0,0
13.01.2020 22:00:00 -2,3 -3,6 0 0 5 3 N 1022,4 0,0
13.01.2020 21:00:00 -0,9 -1,9 0 0 5 3 N 1022,6 0,0
13.01.2020 20:00:00 -0,3 -1,7 0 0 4 2 N 1023,2 0,0
13.01.2020 19:00:00 0,7 -1,5 2 1 9 5 S 1023,3 -
13.01.2020 18:00:00 2,4 -1,4 2 1 11 6 NNE 1023,0 0,0
13.01.2020 17:00:00 5,5 -0,8 8 4 9 5 S 1021,8 0,0
13.01.2020 16:00:00 7,2 -1,2 4 2 5 3 SO 1022,0 0,0
13.01.2020 15:00:00 7,0 -1,2 4 2 8 4 NNE 1023,0 0,0
13.01.2020 14:00:00 6,8 -0,9 4 2 8 4 ENE 1023,1 0,0
13.01.2020 13:00:00 5,7 -0,2 2 1 8 4 NNE 1023,9 -
13.01.2020 12:00:00 3,3 -0,2 2 1 8 4 ENE 1025,9 0,0
13.01.2020 11:00:00 1,4 0,1 2 1 8 4 E 1027,1 0,0
13.01.2020 10:00:00 -1,3 -2,0 2 1 11 6 NE 1027,5 0,0
13.01.2020 09:00:00 -2,4 -3,0 2 1 9 5 E 1027,6 0,0
13.01.2020 08:00:00 -2,6 -3,0 4 2 8 4 E 1027,6 0,0
13.01.2020 07:00:00 -2,4 -2,7 0 0 5 3 N 1027,9 -
13.01.2020 06:00:00 -3,6 -4,6 0 0 8 4 N 1028,4 0,0
13.01.2020 05:00:00 -3,4 -4,2 0 0 4 2 N 1028,3 0,0
13.01.2020 04:00:00 -2,7 -3,1 4 2 5 3 N 1028,5 0,0
13.01.2020 03:00:00 -2,2 -2,8 0 0 8 4 N 1028,8 0,0
13.01.2020 02:00:00 -1,6 -2,0 4 2 5 3 ENE 1028,9 0,0
13.01.2020 01:00:00 -1,8 -2,5 0 0 4 2 N 1029,3 -
13.01.2020 00:00:00 -2,0 -3,0 0 0 4 2 N 1029,9 0,0
12.01.2020 23:00:00 -1,5 -2,2 0 0 5 3 N 1030,1 0,0
12.01.2020 22:00:00 -0,6 -1,2 4 2 5 3 N 1030,1 0,0
12.01.2020 21:00:00 -0,6 -2,2 0 0 4 2 N 1030,2 0,0
12.01.2020 20:00:00 0,4 -1,5 0 0 5 3 N 1030,1 0,0
12.01.2020 19:00:00 1,5 -0,9 0 0 5 3 N 1029,7 -
12.01.2020 18:00:00 4,0 0,3 4 2 5 3 E 1029,5 0,0
12.01.2020 17:00:00 6,3 0,8 2 1 5 3 SSO 1029,0 0,0
12.01.2020 16:00:00 9,5 0,9 0 0 5 3 N 1028,8 0,0
12.01.2020 15:00:00 9,8 1,7 0 0 8 4 N 1028,9 0,0
12.01.2020 14:00:00 8,3 1,2 0 0 8 4 N 1029,5 0,0
12.01.2020 13:00:00 7,0 1,5 0 0 5 3 N 1030,7 -
12.01.2020 12:00:00 3,5 1,5 2 1 8 4 NE 1031,9 0,0
12.01.2020 11:00:00 0,9 0,8 4 2 8 4 NNE 1033,3 0,0
12.01.2020 10:00:00 -3,1 -3,5 4 2 4 2 NNE 1033,3 0,0
12.01.2020 09:00:00 -3,2 -3,6 0 0 4 2 N 1033,1 0,0
12.01.2020 08:00:00 -2,9 -3,2 0 0 5 3 N 1032,7 0,0
12.01.2020 07:00:00 -2,7 -3,0 2 1 5 3 E 1032,4 -
12.01.2020 06:00:00 -2,1 -2,4 4 2 5 3 S 1031,9 0,0
12.01.2020 05:00:00 -2,2 -2,6 0 0 2 1 N 1031,8 0,0
12.01.2020 04:00:00 -1,8 -2,2 0 0 4 2 N 1032,0 0,0
12.01.2020 03:00:00 -1,5 -2,1 0 0 4 2 N 1032,2 0,0
12.01.2020 02:00:00 0,2 -0,1 0 0 4 2 N 1032,0 0,0
12.01.2020 01:00:00 0,9 0,3 0 0 2 1 N 1032,1 -
12.01.2020 00:00:00 2,1 1,1 2 1 4 2 N 1032,1 0,0
11.01.2020 23:00:00 2,9 1,7 0 0 4 2 N 1032,0 0,0
11.01.2020 22:00:00 2,8 1,5 0 0 4 2 N 1032,0 0,0
11.01.2020 21:00:00 2,7 1,5 4 2 5 3 E 1032,0 0,0
11.01.2020 20:00:00 3,1 1,8 4 2 5 3 E 1032,0 0,0
11.01.2020 19:00:00 2,9 0,8 2 1 8 4 NNE 1031,8 -

tt = Temperatura
td = dewpoint
ff = velocità del vento
fx = gusts
dd = direzione del vento
ppp = reduced air pressure
rr = precipitazioni

Stazioni seguenti

WeatherPro
AMSI
MeteoEarth